This is the latest recevied weather packets stored in our database for station/object N9DRW. If no packets are shown the sender has not sent any weather packets the latest 10 day(s).
| Time | Temp. | Humidity | Pressure | Rain* | Wind** | Luminosity | Snow |
|---|---|---|---|---|---|---|---|
| 1777742525 | 13.89° C | 38% | 0 hPa | 0 mm | - | - | - |
| 1777741926 | 13.33° C | 34% | 0 hPa | 0 mm | - | - | - |
| 1777741326 | 12.78° C | 38% | 0 hPa | 0 mm | - | - | - |
| 1777740726 | 11.67° C | 36% | 0 hPa | 0 mm | - | - | - |
| 1777740126 | 12.78° C | 38% | 0 hPa | 0 mm | - | - | - |
| 1777739526 | 12.22° C | 37% | 0 hPa | 0 mm | - | - | - |
| 1777738926 | 11.67° C | 39% | 0 hPa | 0 mm | - | - | - |
| 1777738326 | 11.67° C | 37% | 0 hPa | 0 mm | - | - | - |
| 1777737125 | 11.67° C | 39% | 0 hPa | 0 mm | - | - | - |
| 1777736526 | 11.67° C | 41% | 0 hPa | 0 mm | - | - | - |
| 1777735926 | 11.11° C | 44% | 0 hPa | 0 mm | - | - | - |
| 1777735325 | 10° C | 44% | 0 hPa | 0 mm | - | - | - |
| 1777734726 | 10.56° C | 43% | 0 hPa | 0 mm | - | - | - |
| 1777734126 | 10.56° C | 48% | 0 hPa | 0 mm | - | - | - |
| 1777733526 | 10.56° C | 48% | 0 hPa | 0 mm | - | - | - |
| 1777732926 | 10° C | 51% | 0 hPa | 0 mm | - | - | - |
| 1777731726 | 8.89° C | 54% | 0 hPa | 0 mm | - | - | - |
| 1777731126 | 8.89° C | 57% | 0 hPa | 0 mm | - | - | - |
| 1777730525 | 8.33° C | 58% | 0 hPa | 0 mm | - | - | - |
| 1777729926 | 7.78° C | 62% | 0 hPa | 0 mm | - | - | - |
| 1777729326 | 7.78° C | 66% | 0 hPa | 0 mm | - | - | - |
| 1777728725 | 6.67° C | 69% | 0 hPa | 0 mm | - | - | - |
| 1777728126 | 6.67° C | 71% | 0 hPa | 0 mm | - | - | - |
| 1777727526 | 6.67° C | 73% | 0 hPa | 0 mm | - | - | - |
| 1777726926 | 6.11° C | 77% | 0 hPa | 0 mm | - | - | - |
* Rain latest hour (hover to see other rain measurements)
** Current wind speed in m/s (hover to see current wind gust speed)